Location: Unspecified
(0.0000°N, 0.0000°E)
Time: 17:42:50
(UTC+00:00)

Courier 1B Rocket - Pass Details

Date: 03 October 2020
Orbit: 921 x 1202 km, 28.2° (Epoch: 27 October)

Event Time Altitude Azimuth Distance (km) Brightness Sun altitude
Rises 14:21:59 0° 275° (W) 3,688 8.6 51.5°
Reaches altitude 10° 14:24:59 10° 263° (W) 2,784 8.3 50.8°
Maximum altitude 14:30:41 28° 206° (SSW) 1,861 7.2 49.4°
Drops below altitude 10° 14:36:44 10° 149° (SSE) 2,966 7.5 47.9°
Sets 14:40:03 0° 138° (SE) 3,971 7.9 47.0°
